#timestamp,LO_Frequency,Hit 
1501747215.4,286046972.9,N
1501747235.3,286046972.9,N
1501747255.1,286046972.9,N
1501747256.0,286046972.9,N
1501747275.8,286046975.5,N
1501747295.7,286046975.6,N
1501747315.5,286046975.3,N
1501747335.3,286046975.0,N
1501747355.1,286046974.7,N
1501747375.9,286046975.6,N
1501747395.7,286046972.7,N
1501747415.5,286046975.3,N
1501747435.4,286046972.9,N
1501747455.2,286046971.4,N
1501747475.0,286046969.7,N
1501747475.9,286046969.7,N
1501747495.8,286046972.3,N
1501747515.6,286046971.6,N
1501747535.4,286046970.7,N
1501747555.3,286046966.8,N
1501747575.1,286046967.5,N
1501747576.0,286046967.5,N
1501747595.8,286046966.5,N
1501747615.7,286046969.2,N
1501747635.5,286046967.6,N
1501747655.3,286046966.4,N
1501747675.1,286046968.6,N
1501747695.9,286046968.0,N
1501747715.7,286046968.7,N
1501747735.5,286046968.3,N
1501747755.4,286046966.9,N
1501747775.2,286046966.5,N
1501747795.0,286046964.8,N
1501747795.9,286046964.8,N
1501747815.8,286046963.6,N
1501747835.6,286046964.9,N
1501747855.4,286046962.9,N
1501747875.3,286046963.5,N
1501747895.1,286046961.8,N
1501747896.0,286046961.8,N
1501747915.8,286046963.1,N
1501747935.6,286046963.6,N
1501747955.5,286046962.5,N
1501747975.3,286046964.3,N
1501747995.1,286046962.6,N
1501748015.9,286046961.3,N
1501748035.7,286046959.8,N
1501748055.5,286046959.7,N
1501748075.4,286046960.8,N
1501748095.2,286046958.2,N
1501748115.0,286046959.2,N
1501748115.9,286046959.2,N
1501748135.8,286046957.6,N
1501748155.6,286046959.3,N
1501748175.4,286046956.5,N
1501748195.2,286046958.7,N
1501748215.1,286046961.2,N
1501748216.0,286046961.2,N
1501748235.8,286046960.6,N
1501748255.6,286046958.4,N
1501748275.5,286046958.9,N
1501748295.3,286046961.2,N
1501748315.1,286046960.8,N
1501748335.9,286046958.2,N
1501748355.7,286046959.4,N
1501748375.5,286046959.3,N
1501748395.4,286046960.8,N
1501748415.2,286046961.1,N
1501748435.0,286046961.0,N
1501748435.9,286046961.0,N
1501748455.8,286046958.2,N
1501748475.6,286046959.2,N
1501748495.4,286046958.7,N
1501748515.2,286046958.9,N
1501748535.1,286046958.6,N
1501748536.0,286046958.6,N
1501748555.8,286046957.9,N
1501748575.6,286046956.5,N
1501748595.5,286046955.1,N
1501748615.3,286046955.7,N
1501748635.1,286046957.8,N
1501748655.9,286046957.8,N
1501748675.7,286046955.4,N
1501748695.5,286046958.0,N
1501748715.4,286046957.0,N
1501748735.2,286046954.9,N
1501748755.0,286046957.7,N
1501748755.9,286046957.7,N
1501748775.8,286046953.5,N
1501748795.6,286046951.8,N
1501748815.4,286046954.4,N
1501748835.2,286046953.6,N
1501748855.1,286046956.0,N
1501748856.0,286046956.0,N
1501748875.8,286046956.1,N
1501748895.6,286046957.6,N
1501748915.5,286046956.2,N
1501748935.3,286046954.0,N
1501748955.1,286046956.3,N
1501748975.9,286046956.0,N
1501748995.7,286046952.4,N
1501749015.5,286046952.2,N
1501749035.4,286046952.9,N
1501749055.2,286046954.6,N
1501749075.0,286046954.4,N
1501749075.9,286046954.4,N
1501749095.8,286046952.2,N
1501749115.6,286046954.4,N
1501749135.4,286046954.8,N
1501749155.2,286046950.5,N
1501749175.1,286046951.9,N
1501749176.0,286046951.9,N
1501749195.8,286046954.6,N
1501749215.6,286046954.0,N
1501749235.5,286046954.3,N
1501749255.3,286046953.8,N
1501749275.1,286046954.5,N
1501749295.9,286046953.5,N
1501749315.7,286046954.7,N
1501749335.5,286046954.2,N
1501749355.4,286046950.2,N
1501749375.2,286046950.8,N
1501749395.0,286046949.0,N
1501749395.9,286046949.0,N
1501749415.7,286046949.7,N
1501749435.6,286046949.3,N
1501749455.4,286046951.0,N
1501749475.2,286046948.5,N
1501749495.1,286046950.2,N
1501749496.0,286046950.2,N
1501749515.8,286046948.8,N
1501749535.6,286046949.8,N
1501749555.5,286046947.5,N
1501749575.3,286046950.8,N
1501749595.1,286046948.5,N
1501749615.9,286046951.2,N
1501749635.7,286046950.0,N
1501749655.5,286046949.6,N
1501749675.3,286046947.9,N
1501749695.2,286046945.8,N
1501749715.0,286046945.3,N
1501749715.9,286046945.3,N
1501749735.7,286046945.9,N
1501749755.6,286046946.1,N
1501749775.4,286046947.9,N
1501749795.2,286046945.7,N
1501749815.1,286046947.1,N
1501749816.0,286046947.1,N
1501749835.8,286046947.8,N
1501749855.6,286046945.6,N
1501749875.5,286046947.4,N
1501749895.3,286046945.4,N
1501749915.1,286046945.9,N
1501749935.9,286046945.9,N
1501749955.7,286046946.1,N
1501749975.5,286046947.7,N
1501749995.3,286046948.4,N
1501750015.2,286046944.2,N
1501750035.9,286046946.0,N
1501750055.7,286046945.4,N
1501750075.6,286046946.5,N
1501750095.4,286046944.9,N
1501750115.2,286046945.1,N
1501750135.1,286046942.2,N
1501750136.0,286046942.2,N
1501750155.8,286046942.6,N
1501750175.6,286046942.1,N
1501750195.5,286046944.8,N
1501750215.3,286046942.1,N
1501750235.1,286046943.3,N
1501750255.8,286046942.2,N
1501750275.7,286046942.8,N
1501750295.5,286046942.5,N
1501750315.3,286046944.9,N
1501750335.2,286046945.2,N
1501750355.9,286046944.6,N
1501750375.7,286046944.1,N
1501750395.6,286046944.8,N
1501750415.4,286046942.8,N
1501750435.2,286046942.2,N
1501750455.1,286046942.9,N
1501750456.0,286046942.9,N
1501750475.8,286046939.0,N
1501750495.6,286046939.0,N
1501750515.4,286046941.4,N
1501750535.3,286046941.4,N
1501750555.1,286046941.9,N
1501750575.8,286046941.1,N
1501750595.7,286046943.5,N
1501750615.5,286046941.7,N
1501750635.3,286046939.7,N
1501750655.2,286046939.9,N
1501750675.9,286046937.9,N
1501750695.7,286046938.5,N
1501750715.6,286046938.6,N
1501750735.4,286046941.7,N
1501750755.2,286046940.5,N
1501750775.0,286046939.3,N
1501750775.9,286046939.3,N
1501750795.8,286046938.1,N
